Regional Weather Roundup
Issued by NWS Cleveland, OH

Home | Current Version | Previous Version | Graphics & Text | Print | Product List | Glossary On
Versions: 1 2 3 4 5 6 7 8 9 10 11 12 13 14 15 16 17 18 19 20 21 22 23 24 25 26 27 28 29 30 31 32 33 34 35 36 37 38 39 40 41 42 43 44 45 46 47 48 49 50
000
ASUS41 KCLE 251912
RWRCLE
OHIO REGIONAL WEATHER ROUNDUP
NATIONAL WEATHER SERVICE WILMINGTON, OH
300 PM EDT TUE APR 25 2017

NOTE: "FAIR" INDICATES FEW OR NO CLOUDS BELOW 12,000 FEET WITH NO
SIGNIFICANT WEATHER AND/OR OBSTRUCTIONS TO VISIBILITY.

OHZ001>008-015>018-024>027-034-035-043-044-252000-
   NORTHWEST OHIO

CITY           SKY/WX    TMP DP  RH WIND       PRES   REMARKS
DEFIANCE       FAIR      71  53  52 SE6       29.73F
FINDLAY        FAIR      76  53  44 S10       29.74F
TOLEDO EXPRESS FAIR      74  54  49 VRB6      29.76F
TOLEDO EXEC    FAIR      70  57  63 NE7       29.77F
LIMA           FAIR      75  55  49 SE9       29.74F
$$

OHZ009>014-019>023-028>033-038-089-252000-
   NORTHEAST OHIO

CITY           SKY/WX    TMP DP  RH WIND       PRES   REMARKS
CLE-HOPKINS    FAIR      75  53  46 SE15G21   29.81F
CLE-LAKEFRONT  PTSUNNY   59  53  80 N9        29.79F
CUY CO. ARPT   PTSUNNY   73  57  56 SE9G17    29.82F
LORAIN-ELYRIA  FAIR      73  51  46 S16       29.79F
ASHTABULA      FAIR      70  54  56 SE10      29.85S
AKRON-CANTON   PTSUNNY   69  54  58 SE15      29.82F
WOOSTER        CLOUDY    69  55  60 SE12      29.80F
MANSFIELD      FAIR      73  51  46 SE12      29.78F
YOUNGSTOWN     CLOUDY    67  53  61 SE15G21   29.85F
$$

OHZ042-051>053-060>062-070>072-077>081-252000-
  SOUTHWEST OHIO

CITY           SKY/WX    TMP DP  RH WIND       PRES   REMARKS
CINC-COVINGTON PTSUNNY   72  58  61 SW6       29.74F
CINC-LUNKEN    PTSUNNY   73  59  61 VRB5      29.73F
HAMILTON       FAIR      77  59  53 VRB3      29.74F
DAYTON         PTSUNNY   74  55  51 S9        29.74F
WRIGHT-PAT AFB LGT RAIN  75  55  49 S7        29.73F
DAYTON GENERAL PTSUNNY   73  56  54 S10       29.73F
WILMINGTON     FAIR      72  58  61 SE6       29.74F
$$

OHZ036-037-039>041-045>050-054>059-063>069-073>076-082>088-252000-
  CENTRAL AND SOUTHEAST OHIO

CITY           SKY/WX    TMP DP  RH WIND       PRES   REMARKS
COLUMBUS       FAIR      76  55  48 E8        29.75F
OSU AIRPORT    FAIR      73  55  53 SE10      29.75F
BOLTON FIELD   MOSUNNY   73  55  53 S9G18       N/A
RICKENBACK AFB CLOUDY    73  55  53 SE8       29.74F
NEWARK         FAIR      75  52  44 SE9       29.75F
MARION         FAIR      75  51  43 S8G17     29.76F
LANCASTER      PTSUNNY   76  56  49 SE7       29.76F
ZANESVILLE     CLOUDY    69  53  56 SE9       29.78F
NEW PHILLY     CLOUDY    66  55  67 E9        29.82F
$$



USA.gov is the U.S. government's official web portal to all federal, state and local government web resources and services.